Escatawpa, MS

5:19 AM CDT on July 24, 2016 (GMT -0500)
Lott International

Weather History for KPQL - April, 2014

Change the Weather History Date:

Tuesday, April 15, 2014

  Actual Average Record
Temperature  
Mean Temperature 55 °F -  
Max Temperature 64 °F 76 °F 88 °F (2001)
Min Temperature 45 °F 59 °F 37 °F (2004)
Degree Days  
Heating Degree Days 10    
Growing Degree Days 5 (Base 50)    
Moisture  
Dew Point 46 °F    
Average Humidity 79    
Maximum Humidity 100    
Minimum Humidity 38    
Precipitation  
Precipitation 0.53 in - - ()
Sea Level Pressure  
Sea Level Pressure 29.98 in    
Wind  
Wind Speed 10 mph (NNW)    
Max Wind Speed 25 mph    
Max Gust Speed 33 mph    
Visibility 9 miles    
Events Rain    
Averages and records for this station are not official NWS values.
T = Trace of Precipitation, MM = Missing Value Source: NWS Daily Summary

Daily Weather History Graph

Daily Weather History Graph

Search for Another Location

Airport or City:

Trip Planner

Search our weather history database for the weather conditions in past years. The results will help you decide how hot, cold, wet, or windy it might be!

Date:

Astronomy

Apr. 15, 2014 Rise Set
Actual Time 6:26 AM CDT 7:21 PM CDT
Civil Twilight 6:02 AM CDT 7:46 PM CDT
Nautical Twilight 5:33 AM CDT 8:15 PM CDT
Astronomical Twilight 5:03 AM CDT 8:45 PM CDT
Moon 7:59 PM CDT (4/15) 6:35 AM CDT (4/15)
Length of Visible Light 13h 44m
Length of Day
12h 55m
Full, 100% of the Moon is Illuminated
Apr 15
Full
Apr 22
Last Quarter
Apr 29
New
May 6
First Quarter
May 14
Full

Hourly Weather History & Observations

Time (CDT) Temp. Windchill Dew Point Humidity Pressure Visibility Wind Dir Wind Speed Gust Speed Precip Events Conditions
12:53 AM 64.9 °F - 64.0 °F 97% 29.81 in 8.0 mi Calm Calm - 0.07 in Rain Light Rain
1:53 AM 64.0 °F - 64.0 °F 100% 29.84 in 4.0 mi West 4.6 mph - 0.05 in Rain Rain
2:01 AM 64.0 °F - 64.0 °F 100% 29.84 in 2.5 mi West 6.9 mph - 0.04 in Rain Rain
2:16 AM 64.0 °F - 63.0 °F 96% 29.80 in 3.0 mi NNW 9.2 mph - 0.14 in Rain Rain
2:27 AM 63.0 °F - 63.0 °F 100% 29.80 in 5.0 mi NW 8.1 mph - 0.17 in Rain Rain
2:34 AM 63.0 °F - 63.0 °F 100% 29.81 in 9.0 mi NW 8.1 mph - 0.17 in Rain Light Rain
2:53 AM 57.9 °F - 57.0 °F 97% 29.85 in 4.0 mi NNW 15.0 mph 31.1 mph 0.25 in Rain Rain
3:13 AM 55.9 °F - 55.0 °F 97% 29.83 in 4.0 mi NNW 11.5 mph 20.7 mph 0.10 in Rain Rain
3:53 AM 52.0 °F - 51.1 °F 97% 29.86 in 7.0 mi NNW 13.8 mph 21.9 mph 0.14 in Rain Rain
4:53 AM 51.1 °F - 48.0 °F 89% 29.90 in 10.0 mi NNW 16.1 mph 28.8 mph 0.02 in   Overcast
5:07 AM 50.0 °F - 48.0 °F 93% 29.89 in 10.0 mi NNW 13.8 mph 26.5 mph N/A   Overcast
5:27 AM 50.0 °F - 46.9 °F 89% 29.91 in 7.0 mi NNW 17.3 mph 26.5 mph N/A   Overcast
5:38 AM 50.0 °F - 48.0 °F 93% 29.91 in 10.0 mi NNW 18.4 mph 26.5 mph 0.00 in   Overcast
5:53 AM 48.9 °F - 48.0 °F 97% 29.91 in 10.0 mi NNW 12.7 mph 23.0 mph 0.00 in   Overcast
5:55 AM 48.9 °F - 48.0 °F 97% 29.91 in 10.0 mi NNW 10.4 mph 17.3 mph N/A   Overcast
6:53 AM 48.0 °F - 46.0 °F 93% 29.94 in 10.0 mi NNW 11.5 mph 27.6 mph N/A   Overcast
7:07 AM 48.0 °F - 45.0 °F 89% 29.95 in 9.0 mi NNW 18.4 mph 27.6 mph N/A   Overcast
7:35 AM 48.0 °F - 45.0 °F 89% 29.98 in 10.0 mi NNW 9.2 mph 20.7 mph N/A   Overcast
7:53 AM 46.9 °F - 45.0 °F 93% 30.00 in 10.0 mi NNW 12.7 mph 19.6 mph N/A   Overcast
8:53 AM 48.0 °F - 44.1 °F 86% 30.03 in 10.0 mi NW 12.7 mph 23.0 mph N/A   Overcast
9:10 AM 48.0 °F - 43.0 °F 83% 30.03 in 10.0 mi NNW 13.8 mph 26.5 mph N/A   Overcast
9:53 AM 48.9 °F - 43.0 °F 80% 30.04 in 10.0 mi North 25.3 mph 32.2 mph N/A   Overcast
10:53 AM 48.9 °F - 41.0 °F 74% 30.08 in 10.0 mi North 18.4 mph 29.9 mph N/A   Overcast
11:53 AM 48.9 °F - 39.0 °F 69% 30.09 in 10.0 mi North 20.7 mph 33.4 mph N/A   Overcast
12:53 PM 53.1 °F - 39.0 °F 59% 30.08 in 10.0 mi North 20.7 mph 31.1 mph N/A   Mostly Cloudy
1:53 PM 55.0 °F - 39.0 °F 55% 30.07 in 10.0 mi NNW 12.7 mph 26.5 mph N/A   Partly Cloudy
2:53 PM 57.9 °F - 37.9 °F 47% 30.04 in 10.0 mi North 18.4 mph 25.3 mph N/A   Clear
3:53 PM 57.9 °F - 37.9 °F 47% 30.02 in 10.0 mi North 16.1 mph 25.3 mph N/A   Clear
4:53 PM 60.1 °F - 35.1 °F 39% 30.04 in 10.0 mi North 11.5 mph 21.9 mph N/A   Clear
5:53 PM 59.0 °F - 33.1 °F 38% 30.06 in 10.0 mi North 16.1 mph - N/A   Clear
6:53 PM 55.9 °F - 34.0 °F 44% 30.09 in 10.0 mi North 9.2 mph - N/A   Clear
7:53 PM 52.0 °F - 36.0 °F 54% 30.13 in 10.0 mi Calm Calm - N/A   Clear
8:53 PM 50.0 °F - 37.0 °F 61% 30.15 in 10.0 mi NNW 4.6 mph - N/A   Clear
9:53 PM 46.9 °F - 37.9 °F 71% 30.18 in 10.0 mi North 4.6 mph - N/A   Clear
10:53 PM 46.0 °F 41.9 °F 35.1 °F 66% 30.19 in 10.0 mi North 8.1 mph - N/A   Clear
11:53 PM 45.0 °F 40.6 °F 33.1 °F 63% 30.19 in 10.0 mi NNE 8.1 mph - N/A   Clear